sat.trackr.live / text

‹ back to catalog

STARLINK-32826

NORAD 62970 · 2025-029Y

PAYLOAD ACTIVE UNKNOWN

§ Identity

Operator
Country
US
Launch date
2025-02-11
Launch site
AFWTR
Launch vehicle
Mass (kg)
RCS (m²)

Purposes: comms

External: N2YO · Heavens-Above · Gunter

§ Orbital elements

Epoch: 2026-05-24T23:50:01.317984Z

Period
94.10 min
Inclination
53.1589°
Eccentricity
0.0001103
Mean motion
15.30207799 rev/d
Perigee alt
474.4 km
Apogee alt
475.9 km
Semi-major
6,853.3 km
B*
4.7799e-4
RAAN
237.7699°
Arg perigee
82.7057°
Mean anomaly
277.4069°
Rev number
7,300

§ Raw data

STARLINK-328261 62970U 25029Y   26144.99307081  .00013827  00000+0  47799-3 0  99952 62970  53.1589 237.7699 0001103  82.7057 277.4069 15.30207799 73002

JSON: /api/v1/satellites/62970 · /tle

For live sub-satellite position, see the globe view (requires WebGL).

§ Visibility from observer

Set your observer location to see the next 7 days of passes ≥ 10°. The values pass through the URL so the page stays shareable.

No JS? Fill the form by hand. The geolocation button needs JavaScript.